Regional Weather Roundup
Issued by NWS

Home | Current Version | Previous Version | Graphics & Text | Print | Product List | Glossary On
Versions: 1 2 3 4 5 6 7 8 9 10 11 12 13 14 15 16 17 18 19 20 21 22 23 24 25 26 27 28 29 30 31 32 33 34 35 36 37 38 39 40 41 42 43 44 45 46 47 48 49 50
485
ASUS43 KLOT 231703
RWRIL

ILLINOIS REGIONAL WEATHER ROUNDUP
NATIONAL WEATHER SERVICE CHICAGO/ROMEOVILLE IL
1100 AM CST THU FEB 23 2017

NOTE: "FAIR" INDICATES FEW OR NO CLOUDS BELOW 12,000 FEET WITH NO
SIGNIFICANT WEATHER AND/OR OBSTRUCTIONS TO VISIBILITY.

* THESE STATIONS ARE NOT UNDER NWS QUALITY CONTROL. THEY ALSO MAY NOT
  REPORT WEATHER SUCH AS PRECIPITATION OR FOG.

ILZ001-002-007-009-015-016-024-231800-
NORTHWEST ILLINOIS

CITY           SKY/WX    TMP DP  RH WIND       PRES   REMARKS
MOLINE         CLOUDY    46  39  76 NE5       29.80S
STERLING*      CLOUDY    48  42  80 E10       29.80F
SAVANNA*       CLOUDY    46  38  74 NE10      29.81S
$$

ILZ003-004-008-010-011-017-018-231800-
NORTH CENTRAL ILLINOIS

CITY           SKY/WX    TMP DP  RH WIND       PRES   REMARKS
ROCKFORD       CLOUDY    48  39  71 NE12      29.84R
FREEPORT*      CLOUDY    43  38  82 NE17      29.81F
ROCHELLE*      CLOUDY    47  42  80 NE10      29.80F
DE KALB*       CLOUDY    49  42  76 NE8       29.82F
PERU*          CLOUDY    49  42  76 NE10      29.80F
$$

ILZ005-006-012>014-019>023-231800-
NORTHEAST ILLINOIS

CITY           SKY/WX    TMP DP  RH WIND       PRES   REMARKS
CHICAGO-OHARE  CLOUDY    45  37  73 NE12      29.84R
CHICAGO-MIDWAY CLOUDY    48  39  71 N12       29.84R
AURORA         CLOUDY    52  41  66 NE9       29.81R
LANSING*       CLOUDY    48  43  81 NE14      29.82R
JOLIET*        PTSUNNY   55  44  68 N8        29.81R
WAUKEGAN       CLOUDY    40  36  86 NE10      29.84R
DUPAGE AIRPORT CLOUDY    51  40  65 NE12G18   29.82R
KANKAKEE*      CLOUDY    55  47  72 N7        29.80R
WHEELING       CLOUDY    41  35  79 NE13      29.86R
MORRIS*        CLOUDY    52  44  72 N6        29.80R
ROMEOVILLE*    PTSUNNY   53  46  74 E6        29.81R
NORTHERLY ISL    N/A     44  39  82 N7          N/A
$$

LMZ740>746-231800-
SOUTHERN LAKE MICHIGAN

STATION/POSITION SKY/WX   TEMP    WIND        PRES    VSBY  WAVE
                          AIR SEA DIR/SP/G                  HT/PER
                          (F)     (DEG/KT/KT) (MB)    (MI)  (FT/S)
HARRISON CRIB              41      20/  8/  8   N/A
BURNHAM HARBOR             44     360/  6/ 11   N/A
CALUMET HARBOR             45      20/  9/ 13 1009.4
BURNS HARBOR               41      50/  6/  7 1010.2S
MICHIGAN CITY              39      20/  6/  7   N/A
$$

ILZ025>027-034>036-040-047-049-050-058-095>099-231800-
WEST-CENTRAL ILLINOIS

CITY           SKY/WX    TMP DP  RH WIND       PRES   REMARKS
QUINCY         CLOUDY    46  44  93 NE17      29.75F FOG
GALESBURG*     CLOUDY    46  42  87 NE8       29.79S
MACOMB*        CLOUDY    46  44  93 NE13      29.80F
JACKSONVILLE*  CLOUDY    51  48  90 N12       29.76F
PITTSFIELD*    CLOUDY    53  48  83 NE13      29.76F
$$

ILZ028>032-037-038-041>044-048-051>054-059>061-231800-
CENTRAL ILLINOIS

CITY           SKY/WX    TMP DP  RH WIND       PRES   REMARKS
PONTIAC        CLOUDY    53  48  83 N9        29.80R
BLOOMINGTON    CLOUDY    51  47  86 NE16      29.77F
DECATUR        CLOUDY    56  54  93 N5        29.76R
PEORIA         CLOUDY    50  44  80 NE10      29.78F
LACON*         CLOUDY    49  45  85 NE3       29.78S
LINCOLN*       CLOUDY    53  50  89 NE12      29.76F
SPRINGFIELD    CLOUDY    56  51  84 NE9       29.76F
TAYLORVILLE    CLOUDY    56  55  97 N5        29.74F
$$

ILZ033-039-045-046-055>057-062-063-231800-
EAST-CENTRAL ILLINOIS

CITY           SKY/WX    TMP DP  RH WIND       PRES   REMARKS
CHAMPAIGN      CLOUDY    57  53  86 SE3       29.76R
RANTOUL*       CLOUDY    60  51  72 CALM      29.77R
MATTOON        CLOUDY    61  57  87 S8        29.75S
PARIS*         CLOUDY    61  57  88 S8        29.77S
$$

ILZ079-100>102-231800-
SOUTHWEST ILLINOIS

CITY           SKY/WX    TMP DP  RH WIND       PRES   REMARKS
ALTON          MOSUNNY   64  54  68 E6          N/A
BELLEVILLE     SUNNY     65  58  78 E12       29.71F
CAHOKIA*       SUNNY     67  53  61 MISG      29.71F
SPARTA*        CLOUDY    60  55  83 S13G18    29.75F
$$

ILZ064>066-069>071-074>076-080>082-084>086-088>090-092>094-231800-
SOUTH-CENTRAL ILLINOIS

CITY           SKY/WX    TMP DP  RH WIND       PRES   REMARKS
CARBONDALE     CLOUDY    64  58  80 S17       29.76F
CAIRO*         PTSUNNY   66  58  76 S14G20    29.77F
EFFINGHAM*     CLOUDY    66  59  78 S12       29.76F
MARION         CLOUDY    66  59  77 S12       29.77
MT. VERNON     CLOUDY    61  56  83 S12       29.77R
CENTRALIA*     CLOUDY    64  56  77 SW12G21   29.75S
SALEM*         PTSUNNY   66  56  70 S12G18    29.75S
METROPOLIS*    PTSUNNY   67  58  73 CALM      29.78F
$$

ILZ067-068-072-073-078-083-087-091-231800-
SOUTHEAST ILLINOIS

CITY           SKY/WX    TMP DP  RH WIND       PRES   REMARKS
LAWRENCEVILLE  CLOUDY    66  58  75 S16       29.77F
FLORA*         CLOUDY    66  58  75 SW17      29.76S
FAIRFIELD*     CLOUDY    65  58  77 S8        29.76F
HARRISBURG*    CLOUDY    66  58  74 SW13      29.78S
ROBINSON*      PTSUNNY   65  57  73 S14       29.77S
CARMI*         PTSUNNY   66  59  76 S15       29.77S
$$

ABBREVIATIONS USED IN REMARKS
   TC - TEMPERATURE IN CELSIUS
  WCI - WIND CHILL INDEX
   HX - HEAT INDEX
  VSB - VISIBILITY
$$





USA.gov is the U.S. government's official web portal to all federal, state and local government web resources and services.